Location: Alpha Ridge Park
(39.3209°N, 76.9128°W)
Time: 01:50:39
(UTC-04:00)

S-56A Canister/Altair - Pass Details

Date: 27 May 2019
Orbit: 633 x 2499 km, 38.9° (Epoch: 18 June)

Event Time Altitude Azimuth Distance (km) Brightness Sun altitude
Rises 02:01:02 0° 249° (WSW) 3,152 - -28.0°
Reaches altitude 10° 02:03:08 10° 248° (WSW) 2,355 - -27.9°
Exits shadow 02:08:27 72° 174° (S) 1,037 7.9 -27.6°
Maximum altitude 02:08:35 73° 164° (SSE) 1,042 7.9 -27.6°
Drops below altitude 10° 02:16:43 10° 82° (E) 3,455 11.1 -27.1°
Sets 02:20:23 0° 81° (E) 4,746 11.9 -26.9°
